This demonstration page uses our WeatherBlox Daily Observations layout. Learn more.

Left ArrowRight Arrow

41.12389, -100.76542

Hourly Observations for September 17, 2020

Temp ( °F °C ) Dew Point ( °F °C ) Humidity (%) Winds ( mph kmh ) Pressure ( in mb ) Visibility ( mi km ) Precip ( " mm )
12:53 am 00:53 Clear 48 8.9 44 6.7 86 86 E 3 6 30.23 1024 10 16 0.00 0.00
1:53 am 01:53 Clear 45 7.2 42 5.6 90 90 E 3 6 30.22 1024 10 16 0.00 0.00
2:53 am 02:53 Clear 45 7.2 42 5.6 90 90 ESE 5 7 30.21 1023 10 16 0.00 0.00
3:53 am 03:53 Clear 46 7.8 43 6.1 89 89 Calm 30.22 1023 10 16 0.00 0.00
4:53 am 04:53 Clear 43 6.1 40 4.4 89 89 Calm 30.22 1024 9 14 0.00 0.00
5:19 am 05:19 Clear with Mist and Fog 43 6.1 40 4.4 89 89 Calm 30.29 1026 2 2 0.00 0.00
5:21 am 05:21 Mostly Cloudy with Mist and Fog 43 6.1 40 4.4 89 89 Calm 30.29 1026 1 2 0.00 0.00
5:28 am 05:28 Partly Cloudy with Mist and Fog 42 5.6 39 3.9 89 89 WNW 3 6 30.29 1026 2 2 0.00 0.00
5:30 am 05:30 Partly Cloudy with Mist and Fog 41 5 39 3.9 93 93 WNW 3 6 30.30 1026 4 6 0.00 0.00
5:45 am 05:45 Partly Cloudy with Mist and Fog 40 4.4 38 3.3 93 93 Calm 30.30 1026 3 4 0.00 0.00
5:53 am 05:53 Mostly Clear 40 4.4 38 3.3 93 93 Calm 30.23 1024 8 13 0.00 0.00
6:15 am 06:15 Mostly Clear with Mist and Fog 42 5.6 40 4.4 92 92 Calm 30.29 1026 2 2 0.00 0.00
6:17 am 06:17 Mostly Cloudy with Mist and Fog 42 5.6 40 4.4 92 92 Calm 30.29 1026 1 2 0.00 0.00
6:25 am 06:25 Mostly Clear with Mist and Fog 42 5.6 39 3.9 89 89 Calm 30.28 1025 2 2 0.00 0.00
6:37 am 06:37 Mostly Clear with Mist and Fog 42 5.6 39 3.9 89 89 ENE 3 6 30.28 1025 3 5 0.00 0.00
6:53 am 06:53 Mostly Clear 42 5.6 39 3.9 89 89 Calm 30.22 1024 10 16 0.00 0.00
7:53 am 07:53 Sunny 42 5.6 39 3.9 89 89 Calm 30.25 1024 10 16 0.00 0.00
8:53 am 08:53 Sunny 48 8.9 45 7.2 89 89 Calm 30.25 1025 10 16 0.00 0.00
9:53 am 09:53 Sunny 54 12.2 49 9.4 83 83 ESE 5 7 30.24 1024 10 16 0.00 0.00
10:53 am 10:53 Sunny 60 15.6 50 10 70 70 SSE 6 9 30.22 1024 10 16 0.00 0.00
11:53 am 11:53 Sunny 68 20 51 10.6 55 55 S 12 19 30.19 1023 10 16 0.00 0.00
12:53 pm 12:53 Sunny 71 21.7 52 11.1 51 51 SSE 14 22 30.17 1022 10 16 0.00 0.00
1:53 pm 13:53 Sunny 75 23.9 53 11.7 46 46 S 14 22 30.14 1021 10 16 0.00 0.00
2:53 pm 14:53 Sunny 78 25.6 54 12.2 43 43 S 14 22 30.11 1020 10 16 0.00 0.00
3:53 pm 15:53 Sunny 79 26.1 55 12.8 44 44 S 9 15 30.08 1019 10 16 0.00 0.00
4:53 pm 16:53 Sunny 80 26.7 55 12.8 42 42 S 13 20 30.06 1018 10 16 0.00 0.00
5:53 pm 17:53 Sunny 79 26.1 54 12.2 42 42 S 8 13 30.07 1018 10 16 0.00 0.00
6:53 pm 18:53 Sunny 75 23.9 56 13.3 52 52 SE 3 6 30.09 1019 10 16 0.00 0.00
7:53 pm 19:53 Clear 65 18.3 55 12.8 70 70 E 5 7 30.12 1020 10 16 0.00 0.00
8:53 pm 20:53 Clear 61 16.1 54 12.2 78 78 ESE 6 9 30.14 1021 10 16 0.00 0.00
9:53 pm 21:53 Clear 60 15.6 53 11.7 78 78 E 8 13 30.16 1021 10 16 0.00 0.00
10:53 pm 22:53 Clear 59 15 53 11.7 81 81 E 7 11 30.16 1021 10 16 0.00 0.00
11:53 pm 23:53 Clear 56 13.3 51 10.6 84 84 E 7 11 30.16 1021 9 14 0.00 0.00

Powered by AerisWeather